{"data":{"norad_id":53051,"intl_designator":"2022-077J","name":"STARLINK-4336","alt_names":[],"object_type":"PAYLOAD","status":"ACTIVE","operator":null,"country":"US","launch_date":"2022-07-11","launch_site_code":"AFWTR","launch_vehicle":null,"mission":null,"orbit_class":"UNKNOWN","rcs_meters":null,"size_class":null,"mass_kg":null,"dimensions":null,"purposes":["comms"],"wikipedia_slug":null,"has_3d_model":false,"image_url":null,"decayed_at":null,"tle_current":{"epoch":"2026-05-25T01:31:14.972736Z","epoch_age_seconds":63559,"freshness":"FRESH","line1":"1 53051U 22077J   26145.06336774 -.00001894  00000+0 -12720-3 0  9994","line2":"2 53051  97.4481 324.9444 0001304  94.5571 265.5805 15.05665358212390","mean_motion":15.05665358,"eccentricity":0.0001304,"inclination_deg":97.4481,"raan_deg":324.9444,"arg_perigee_deg":94.5571,"mean_anomaly_deg":265.5805,"bstar":-0.0001272,"rev_number":21239,"period_min":95.638781376545,"perigee_km":548.56068612085,"apogee_km":550.36740447347,"semimajor_km":6927.6010452972,"source":"CELESTRAK","updated_at":"2026-05-25T13:38:17.287163Z"}}}